Location: D�derode
(51.8092°N, 10.1065°E)
Time: 02:11:04
(UTC+00:00)

BREEZE-M DEB (TANK) - Pass Details

Date: 21 April 2021
Orbit: 314 x 13086 km, 49.6° (Epoch: 09 May)

Event Time Altitude Azimuth Distance (km) Brightness Sun altitude
Rises 17:45:47 0° 201° (SSW) 17,595 10.5 5.3°
Reaches altitude 10° 18:07:37 10° 199° (SSW) 14,792 10.1 2.0°
Maximum altitude 18:55:13 45° 145° (SE) 4,662 7.1 -4.8°
Drops below altitude 10° 19:06:38 10° 77° (ENE) 4,105 6.8 -6.3°
Sets 19:08:46 0° 70° (ENE) 4,535 7.1 -6.6°
